Flag for Canada Weather past 2 weeks in Greater Sudbury, Ontario, Canada

Now
41 °F

Passing clouds.


Feels Like: 36 °F
Forecast: 30 / 49 °F
Wind: 8 mph from Northeast

Location: Sudbury

Current Time: Sep 18, 2014 at 10:39:33 AM

Latest Report: Sep 18, 2014 at 10:00 AM


Visibility: 20 mi

Pressure: 30.26 "Hg

Humidity: 61%

Dew point: 28 °F

Location of Greater SudburyLocation

Historic Weather in Greater Sudbury — Graph

°F

Greater Sudbury temperature yesterday

Maximum temperature yesterday: 52 °F (at 12:00 AM)
Minimum temperature yesterday: 37 °F (at 11:00 PM)
Average temperature yesterday: 43 °F

Past Weeks' High & Low Weather Summary

 TemperatureHumidityPressure
High77 °F (Sep 3, 4:00 PM)100% (Sep 4, 1:00 AM)30.38 "Hg (Sep 4, 1:00 AM)
Low32 °F (Sep 18, 7:00 AM)35% (Sep 8, 6:00 PM)29.33 "Hg (Sep 11, 1:00 AM)
Average54 °F83%30.05 "Hg
* Reported Sep 3 9:00 AM — Sep 18 9:00 AM, Greater Sudbury, Weather by CustomWeather, © 2014

Note: Actual official high and low records may vary slightly from our data, if they occured in-between our weather recording intervals... More about our weather records

Advertising

Greater Sudbury weather history for previous 24 hours

 ConditionsComfort  
Time TempWeatherWind HumidityBarometerVisibility
9:00 AM
Sep 18
37 °FPassing clouds.3 mph87%30.24 "Hg20 mi
8:00 AM34 °FPassing clouds.3 mph93%30.22 "Hg20 mi
7:00 AM32 °FPassing clouds.5 mph93%30.20 "Hg20 mi
6:00 AM34 °FPassing clouds.8 mph93%30.18 "Hg15 mi
5:00 AM34 °FPassing clouds.8 mph100%30.16 "Hg15 mi
4:00 AM34 °FPassing clouds.7 mph100%30.14 "Hg15 mi
3:00 AM36 °FPassing clouds.7 mph100%30.12 "Hg15 mi
2:00 AM36 °FPassing clouds.6 mph100%30.11 "Hg15 mi
1:00 AM37 °FPassing clouds.7 mph93%30.11 "Hg15 mi
12:00 AM37 °FPassing clouds.9 mph93%30.09 "Hg15 mi
11:00 PM
Sep 17
37 °FPassing clouds.9 mph93%30.08 "Hg15 mi
10:00 PM39 °FLow clouds.10 mph87%30.07 "Hg15 mi
9:00 PM39 °FMostly cloudy.13 mph93%30.05 "Hg15 mi
8:00 PM39 °FMore clouds than sun.13 mph100%30.02 "Hg15 mi
7:00 PM41 °FDrizzle. Fog.12 mph93%30.01 "Hg3 mi
6:00 PM41 °FDrizzle. Fog.8 mph100%29.99 "Hg3 mi
5:00 PM41 °FLight rain. Mostly cloudy.13 mph100%29.97 "Hg10 mi
4:00 PM43 °FLight rain. Mostly cloudy.8 mph100%29.95 "Hg10 mi
3:00 PM43 °FLight rain. Mostly cloudy.10 mph100%29.95 "Hg10 mi
2:52 PM45 °FLight rain. Mostly cloudy.12 mph93%29.95 "Hg8 mi
2:00 PM45 °FLight rain. Fog.10 mph93%29.96 "Hg5 mi
1:55 PM45 °FLight rain. Fog.9 mph93%29.96 "Hg5 mi
1:00 PM45 °FLight rain. Fog.9 mph100%29.97 "Hg5 mi
12:00 PM45 °FLight rain. Cloudy.6 mph93%29.97 "Hg12 mi
11:00 AM45 °FMore clouds than sun.8 mph87%29.96 "Hg20 mi
10:00 AM45 °FCloudy.6 mph87%29.99 "Hg20 mi
Weather by CustomWeather, © 2014

See weather overviewHow to use our weather pages